User: anonymous   Login
Location: Lawrence
(38.9720°N, 95.2350°W)
Time: 08:25:33
(UTC-06:00)
Language:

ALOS - Orbit

View from above orbital plane
View from above orbital plane
View from above satellite
View from above satellite

Ground track
Ground track

The orbit data is extracted from the following two-line orbital elements,

1 28931U 06002A   15025.90047739  .00000448  00000-0  99148-4 0  1671
2 28931 097.9544 080.8678 0001440 135.1826 224.9496 14.61629242479851
Epoch (UTC): 25 January 2015 21:36:41
Eccentricity: 0.0001440
inclination: 97.9544°
perigee height: 687 km
apogee height: 689 km
right ascension of ascending node: 80.8678°
argument of perigee: 135.1826°
revolutions per day: 14.61629242
mean anomaly at epoch: 224.9496°
orbit number at epoch: 47985

The dashed part of the orbit path shows where the satellite is in the earth's shadow,  

DLR